Tracking 29892 objects as of 21-Nov-2024
HD Live streaming from Space Station
objects crossing your sky now

STARLINK-4376

Track STARLINK-4376 now!
10-day predictions
STARLINK-4376 is classified as:


NORAD ID: 53216
Int'l Code: 2022-084AD
Perigee: 568.6 km
Apogee: 571.7 km
Inclination: 97.7 °
Period: 95.9 minutes
Semi major axis: 6941 km
RCS: Unknown
Launch date: July 22, 2022
Source: United States (US)
Launch site: AIR FORCE WESTERN TEST RANGE (AFWTR)
Your satellite tracking list
Your tracking list is empty




NASA's NSSDC Master Catalog

Two Line Element Set (TLE):
1 53216U 22084AD  24326.11413083 -.00000719  00000-0 -51358-4 0  9996
2 53216  97.6576  24.7049 0002186  81.3839 278.7633 15.01264248128644
Source of the keplerian elements: AFSPC